Madison, MN

6:15 PM CDT on September 22, 2019 (GMT -0500)
Madison-Lac Qui Parle County

Weather History for KDXX - July, 2019

Change the Weather History Date:

Monday, July 29, 2019

  Actual Average (WUND) Record (WUND)
Temperature  
Mean Temperature 67 °F -  
Max Temperature 75 °F - - (-1)
Min Temperature 59 °F - - (-1)
Cooling Degree Days 2    
Growing Degree Days 17 (Base 50)    
Moisture  
Dew Point 59 °F    
Average Humidity 70    
Maximum Humidity 94    
Minimum Humidity 53    
Precipitation  
Precipitation 0.00 in - - ()
Sea Level Pressure  
Sea Level Pressure 30.03 in    
Wind  
Wind Speed 11 mph (NNW)    
Max Wind Speed 17 mph    
Max Gust Speed 22 mph    
Visibility 10 miles    
Events      
Averages and records for this station are not official NWS values.
T = Trace of Precipitation, MM = Missing Value Source: NWS Daily Summary

Daily Weather History Graph

Daily Weather History Graph

Search for Another Location

Airport or City:

Astronomy

Jul. 29, 2019 Rise Set
Actual Time 6:06 AM CDT 8:55 PM CDT
Civil Twilight 5:32 AM CDT 9:29 PM CDT
Nautical Twilight 4:49 AM CDT 10:12 PM CDT
Astronomical Twilight 3:58 AM CDT 11:02 PM CDT
Moon 3:16 AM CDT (7/29) 7:03 PM CDT (7/29)
Length of Visible Light 15h 56m
Length of Day
14h 48m
Waning Crescent, 8% of the Moon is Illuminated
Jul 29
Waning Crescent
Jul 31
New
Aug 7
First Quarter
Aug 15
Full
Aug 23
Last Quarter

Hourly Weather History & Observations

Time (CDT) Temp. Dew Point Humidity Pressure Visibility Wind Dir Wind Speed Gust Speed Precip Events Conditions
7:15 AM 64.4 °F 60.8 °F 88% 29.96 in 10.0 mi WNW 9.2 mph - N/A   Clear
7:35 AM 64.4 °F 60.8 °F 88% 29.96 in 10.0 mi NW 10.4 mph - N/A   Clear
7:36 AM 64.4 °F 60.8 °F 88% 29.96 in 10.0 mi NW 11.5 mph - N/A   Clear
7:55 AM 66.2 °F 60.8 °F 83% 29.97 in 10.0 mi WNW 11.5 mph - N/A   Clear
8:18 AM 66.2 °F 62.6 °F 88% 29.98 in 10.0 mi NW 10.4 mph 16.1 mph N/A   Clear
8:36 AM 66.2 °F 62.6 °F 88% 29.98 in 10.0 mi NW 12.7 mph 16.1 mph N/A   Clear
8:55 AM 68.0 °F 60.8 °F 78% 29.99 in 10.0 mi NNW 15.0 mph - N/A   Clear
8:56 AM 68.0 °F 60.8 °F 78% 29.99 in 10.0 mi NNW 16.1 mph - N/A   Clear
9:15 AM 69.8 °F 62.6 °F 78% 29.99 in 10.0 mi NNW 12.7 mph 21.9 mph N/A   Scattered Clouds
9:16 AM 69.8 °F 62.6 °F 78% 29.99 in 10.0 mi NNW 12.7 mph 21.9 mph N/A   Scattered Clouds
9:35 AM 69.8 °F 60.8 °F 73% 30.00 in 10.0 mi NW 13.8 mph - N/A   Mostly Cloudy
9:57 AM 69.8 °F 60.8 °F 73% 30.01 in 10.0 mi NNW 13.8 mph - N/A   Overcast
10:15 AM 69.8 °F 60.8 °F 73% 30.01 in 10.0 mi NNW 13.8 mph - N/A   Overcast
10:35 AM 69.8 °F 60.8 °F 73% 30.01 in 10.0 mi NW 11.5 mph - N/A   Overcast
10:55 AM 69.8 °F 62.6 °F 78% 30.01 in 10.0 mi NW 11.5 mph - N/A   Mostly Cloudy
10:56 AM 69.8 °F 60.8 °F 73% 30.01 in 10.0 mi NW 12.7 mph - N/A   Mostly Cloudy
11:19 AM 71.6 °F 62.6 °F 73% 30.02 in 10.0 mi NNW 10.4 mph - N/A   Mostly Cloudy
11:36 AM 71.6 °F 62.6 °F 73% 30.02 in 10.0 mi NNW 13.8 mph - N/A   Mostly Cloudy
11:56 AM 71.6 °F 60.8 °F 69% 30.02 in 10.0 mi NNW 12.7 mph 17.3 mph N/A   Mostly Cloudy
12:15 PM 71.6 °F 60.8 °F 69% 30.03 in 10.0 mi NNW 13.8 mph - N/A   Mostly Cloudy
12:35 PM 71.6 °F 62.6 °F 73% 30.03 in 10.0 mi NNW 12.7 mph 17.3 mph N/A   Overcast
12:39 PM 71.6 °F 60.8 °F 69% 30.03 in 10.0 mi NNW 12.7 mph 17.3 mph N/A   Overcast
12:57 PM 71.6 °F 60.8 °F 69% 30.03 in 10.0 mi NNW 11.5 mph - N/A   Overcast
1:15 PM 71.6 °F 60.8 °F 69% 30.03 in 10.0 mi NNW 13.8 mph - N/A   Mostly Cloudy
1:35 PM 73.4 °F 60.8 °F 65% 30.03 in 10.0 mi NNW 15.0 mph 18.4 mph N/A   Mostly Cloudy
1:36 PM 71.6 °F 60.8 °F 69% 30.03 in 10.0 mi NNW 17.3 mph - N/A   Mostly Cloudy
1:55 PM 73.4 °F 60.8 °F 65% 30.03 in 10.0 mi NNW 15.0 mph - N/A   Overcast
1:56 PM 73.4 °F 60.8 °F 65% 30.03 in 10.0 mi NNW 13.8 mph - N/A   Overcast
2:18 PM 73.4 °F 60.8 °F 65% 30.03 in 10.0 mi NNW 15.0 mph 20.7 mph N/A   Overcast
2:37 PM 73.4 °F 62.6 °F 69% 30.03 in 10.0 mi NW 10.4 mph 20.7 mph N/A   Scattered Clouds
2:56 PM 73.4 °F 60.8 °F 65% 30.04 in 10.0 mi NNW 11.5 mph 21.9 mph N/A   Mostly Cloudy
3:15 PM 73.4 °F 60.8 °F 65% 30.04 in 10.0 mi NNW 13.8 mph - N/A   Mostly Cloudy
3:35 PM 73.4 °F 59.0 °F 61% 30.04 in 10.0 mi NNW 11.5 mph - N/A   Scattered Clouds
3:39 PM 75.2 °F 60.8 °F 61% 30.03 in 10.0 mi NNW 13.8 mph - N/A   Scattered Clouds
3:57 PM 75.2 °F 59.0 °F 57% 30.04 in 10.0 mi North 16.1 mph 20.7 mph N/A   Scattered Clouds
4:16 PM 75.2 °F 59.0 °F 57% 30.04 in 10.0 mi NNW 15.0 mph 19.6 mph N/A   Scattered Clouds
4:35 PM 75.2 °F 57.2 °F 53% 30.03 in 10.0 mi NNW 11.5 mph - N/A   Scattered Clouds
4:36 PM 75.2 °F 57.2 °F 53% 30.03 in 10.0 mi NNW 11.5 mph - N/A   Scattered Clouds
4:55 PM 73.4 °F 57.2 °F 57% 30.04 in 10.0 mi NNW 15.0 mph - N/A   Scattered Clouds
4:56 PM 73.4 °F 57.2 °F 57% 30.04 in 10.0 mi NNW 15.0 mph - N/A   Scattered Clouds
5:19 PM 75.2 °F 59.0 °F 57% 30.03 in 10.0 mi NNW 15.0 mph - N/A   Scattered Clouds
5:36 PM 73.4 °F 55.4 °F 53% 30.03 in 10.0 mi NNW 15.0 mph - N/A   Scattered Clouds
5:55 PM 73.4 °F 55.4 °F 53% 30.03 in 10.0 mi NNW 13.8 mph 19.6 mph N/A   Clear
5:56 PM 73.4 °F 55.4 °F 53% 30.04 in 10.0 mi NNW 15.0 mph 19.6 mph N/A   Clear
6:15 PM 73.4 °F 55.4 °F 53% 30.03 in 10.0 mi NNW 12.7 mph - N/A   Clear
6:16 PM 73.4 °F 55.4 °F 53% 30.03 in 10.0 mi NNW 11.5 mph - N/A   Clear
6:35 PM 73.4 °F 55.4 °F 53% 30.03 in 10.0 mi NNW 12.7 mph - N/A   Clear
6:40 PM 73.4 °F 55.4 °F 53% 30.03 in 10.0 mi NNW 11.5 mph - N/A   Clear
6:57 PM 73.4 °F 55.4 °F 53% 30.03 in 10.0 mi NNW 11.5 mph - N/A   Clear
7:15 PM 73.4 °F 57.2 °F 57% 30.03 in 10.0 mi North 8.1 mph - N/A   Clear
7:35 PM 71.6 °F 57.2 °F 60% 30.04 in 10.0 mi North 6.9 mph - N/A   Clear
7:55 PM 71.6 °F 57.2 °F 60% 30.04 in 10.0 mi North 5.8 mph - N/A   Clear
7:56 PM 71.6 °F 57.2 °F 60% 30.04 in 10.0 mi North 5.8 mph - N/A   Clear
8:18 PM 69.8 °F 59.0 °F 68% 30.04 in 10.0 mi North 4.6 mph - N/A   Clear
8:37 PM 68.0 °F 57.2 °F 68% 30.04 in 10.0 mi North 4.6 mph - N/A   Clear
8:56 PM 66.2 °F 59.0 °F 78% 30.04 in 10.0 mi NNW 4.6 mph - N/A   Clear
9:15 PM 64.4 °F 57.2 °F 77% 30.05 in 10.0 mi NNW 4.6 mph - N/A   Clear
9:35 PM 64.4 °F 57.2 °F 77% 30.06 in 10.0 mi NNW 4.6 mph - N/A   Clear
9:39 PM 64.4 °F 57.2 °F 77% 30.07 in 10.0 mi NNW 4.6 mph - N/A   Clear
9:57 PM 64.4 °F 57.2 °F 77% 30.07 in 10.0 mi NNW 4.6 mph - N/A   Clear
10:16 PM 64.4 °F 57.2 °F 77% 30.08 in 10.0 mi NW 3.5 mph - N/A   Clear
10:35 PM 60.8 °F 55.4 °F 82% 30.09 in 10.0 mi Calm Calm - N/A   Clear
10:36 PM 60.8 °F 55.4 °F 82% 30.09 in 10.0 mi Calm Calm - N/A   Clear
10:55 PM 60.8 °F 57.2 °F 88% 30.09 in 10.0 mi Calm Calm - N/A   Clear
10:56 PM 60.8 °F 57.2 °F 88% 30.09 in 10.0 mi Calm Calm - N/A   Clear
11:18 PM 60.8 °F 57.2 °F 88% 30.09 in 10.0 mi Calm Calm - N/A   Clear
11:36 PM 59.0 °F 57.2 °F 94% 30.10 in 10.0 mi Calm Calm - N/A   Clear
11:55 PM 59.0 °F 57.2 °F 94% 30.09 in 10.0 mi Calm Calm - N/A   Clear
11:56 PM 59.0 °F 57.2 °F 94% 30.09 in 10.0 mi Calm Calm - N/A   Clear